Regional Weather Roundup
Issued by NWS Huntsville, AL

Home | Current Version | Previous Version | Text Only | Print | Product List | Glossary On
Versions: 1 2 3 4 5 6 7 8 9 10 11 12 13 14 15 16 17 18 19 20 21 22 23 24 25 26 27 28 29 30 31 32 33 34 35 36 37 38 39 40 41 42 43 44 45 46 47 48 49 50
000
ASUS44 KHUN 180810
RWRHUN

WEATHER ROUNDUP FOR THE TENNESSEE VALLEY
NATIONAL WEATHER SERVICE HUNTSVILLE AL
300 AM CDT FRI APR 18 2014

ALZ001>004-180900-
NORTHWEST ALABAMA

CITY           SKY/WX    TMP DP  RH WIND       PRES   REMARKS
SHOALS AIRPORT CLOUDY    58  47  66 CALM      30.25F
$$

ALZ005>007-016-180900-
NORTH CENTRAL ALABAMA

CITY           SKY/WX    TMP DP  RH WIND       PRES   REMARKS
DECATUR AP     CLOUDY    57  47  69 CALM      30.25F
HUNTSVILLE AP  CLOUDY    58  45  62 E8        30.25F
HUN NWS/UAH      N/A     59  40  48 SE2         N/A
MERIDIANVILLE  CLOUDY    57  34  41 CALM      30.26F
VINEMONT AP    CLOUDY    57  44  62 E5        30.27S
$$

ALZ008>010-180900-
NORTHEAST ALABAMA

CITY           SKY/WX    TMP DP  RH WIND       PRES   REMARKS
ALBERTVILLE    CLOUDY    55  45  67 E5        30.25S
FORT PAYNE     CLOUDY    55  32  41 E8        30.26S
SCOTTSBORO AP  CLOUDY    59  37  44 CALM      30.27S
SCOTTSBORO HCN   N/A     55 N/A N/A MISG        N/A
VALLEY HEAD      N/A     57 N/A N/A MISG        N/A
$$

TNZ076-096-097-180900-
SOUTHEASTERN MIDDLE TENNESSEE

CITY           SKY/WX    TMP DP  RH WIND       PRES   REMARKS
FAYETTEVILLE   FAIR      55  40  57 SE5       30.26F
TULLAHOMA      CLEAR     55  36  47 SE5       30.28F
WINCHESTER     CLEAR     55  37  50 SE7       30.27F
$$

...SURROUNDING SITES...

CITY           SKY/WX    TMP DP  RH WIND       PRES   REMARKS
ATLANTA        CLOUDY    56  36  47 NE13      30.28F
ANNISTON       CLOUDY    58  42  55 E10       30.25S
BIRMINGHAM     CLOUDY    60  44  55 E5        30.25F
CHATTANOOGA    CLOUDY    57  35  43 S6        30.28F
CORINTH        CLOUDY    59  46  63 SE5       30.23S
DALTON         CLOUDY    52  41  66 CALM      30.28F
GADSDEN        NOT AVBL
GOLDEN TRNGL   CLOUDY    57  48  72 NE6       30.23S
HALEYVILLE     MOCLDY    56  47  71 SE5       30.26F
JACKSON TN     CLOUDY    56  42  59 CALM      30.22F
LEWISBURG      FAIR      49  46  89 N5        30.26F
MEMPHIS        MOCLDY    59  44  57 E6        30.19F
MURFREESBORO   FAIR      57  41  55 S6        30.27F
NASHVILLE      CLOUDY    55  42  61 CALM      30.27F
OXFORD MS      MOCLDY    52  48  87 CALM      30.22F
ROME           CLOUDY    56  38  50 E5        30.27F
TUPELO         CLOUDY    58  50  75 CALM      30.22F
TUSCALOOSA     CLOUDY    60  49  66 E5        30.21F
$$

...GULF COAST WEATHER...

CITY           SKY/WX    TMP DP  RH WIND       PRES   REMARKS
GULFPORT       LGT RAIN  63  59  87 NE9G17    30.05F
PASCAGOULA     LGT RAIN  60  59  96 NE10      30.06F
MOBILE         LGT RAIN  59  59 100 NE14      30.08F
GULF SHORES    LGT RAIN  60  59  97 NE13      30.06F
PENSACOLA      LGT RAIN  61  60  97 NE12G22   30.07F
DESTIN         RAIN      63  59  87 NE13      30.09F
PANAMA CITY    RAIN      61  59  94 NE8       30.08F
APPALACHICOLA  LGT RAIN  64  60  87 NE12      30.06F
$$




USA.gov is the U.S. government's official web portal to all federal, state and local government web resources and services.